• Join FlightAware (Why Join?)
  • Login
  • US Flag 
01:46PM EDT


 

Airport Tracker/Info


-or-


 

Live Flight TrackerFlight Track Log ✈ UPS768 ✈ 25-May-2013 ✈ KSDF - KDFW

Flight Track Log - Related Links

Times and Time Zones

All times are in EDT time to prevent confusion due to time zone crossing. See the UPS768 flight status page for this flight to view local times or setup timezone preferences in your user account.

Time Position Orientation Groundspeed Altitude Reporting Facility
EDT Latitude Longitude Course Direction KTS MPH feet Rate Location/Type
05:03AM 38.1650 -85.7370 289° West 25 29  Level FlightAware
05:04AM 38.1650 -85.7390 270° West 19 22 60 Level FlightAware
05:05AM 38.1660 -85.7400 322° Northwest 25 29 60 Level FlightAware
05:06AM 38.1680 -85.7410 339° North 30 35 60 Level FlightAware
05:06AM 38.1700 -85.7420 339° North 16 18 120 Level FlightAware
05:07AM 38.1730 -85.7430 345° North 19 22 120 Level FlightAware
05:07AM 38.1750 -85.7430 360° North 18 21 120 Level FlightAware
05:08AM 38.1790 -85.7440 349° North 33 38 120 Level FlightAware
05:09AM 38.1820 -85.7460 332° Northwest 30 35 180 Level FlightAware
05:09AM 38.1840 -85.7460 360° North 21 24 240 Level FlightAware
05:10AM 38.1850 -85.7460 360° North 10 12 300 Level FlightAware
05:10AM 38.1850 -85.7470 270° West 20 23 360 Level FlightAware
05:11AM 38.1850 -85.7480 270° West 24 28 480 Level FlightAware
05:11AM 38.1840 -85.7480 180° South 23 26 600 Level FlightAware
05:12AM 38.1770 -85.7460 167° South 110 127 960 Level FlightAware
05:12AM 38.1570 -85.7390 165° South 159 183 900 1,800 Climbing FlightAware
05:13AM 38.1450 -85.7380 176° South 175 201 1,400 1,620 Climbing FlightAware
05:13AM 38.1190 -85.7430 189° South 224 258 2,100 1,980 Climbing FlightAware
05:14AM 38.0870 -85.7500 190° South 263 303 3,300 3,420 Climbing FlightAware
05:14AM 38.0520 -85.7560 188° South 266 306 5,300 4,020 Climbing FlightAware
05:14AM 38.0380 -85.7610 196° South 272 313 6,000 3,000 Climbing FlightAware
05:14AM 38.0220 -85.7750 215° Southwest 280 322 6,700 3,000 Climbing FlightAware
05:15AM 38.0130 -85.7900 233° Southwest 278 320 7,400 3,900 Climbing FlightAware
05:15AM 38.0010 -85.8340 251° West 278 320 9,300 2,820 Climbing FlightAware
05:16AM 37.9840 -85.9070 254° West 327 376 10,800 1,920 Climbing FlightAware
05:17AM 37.9630 -85.9850 251° West 375 432 12,000 2,340 Climbing FlightAware
05:17AM 37.9330 -86.0720 246° West 396 456 14,000 2,880 Climbing FlightAware
05:18AM 37.8990 -86.1690 246° West 411 473 16,200 2,640 Climbing FlightAware
05:19AM 37.8650 -86.2580 244° Southwest 426 490 17,800 2,340 Climbing FlightAware
05:19AM 37.8300 -86.3540 245° Southwest 444 511 19,400 1,260 Climbing FlightAware
05:21AM 37.7730 -86.5100 245° Southwest 449 517 20,200 2,100 Climbing FlightAware
05:21AM 37.7270 -86.6320 245° Southwest 479 551 23,400 3,360 Climbing FlightAware
05:22AM 37.6870 -86.7370 244° Southwest 488 562 24,800 1,920 Climbing FlightAware
05:23AM 37.6440 -86.8500 244° Southwest 498 573 26,100 2,280 Climbing FlightAware
05:23AM 37.6050 -86.9540 245° Southwest 489 563 28,000 3,000 Climbing FlightAware
05:24AM 37.5650 -87.0590 244° Southwest 474 545 30,200 2,880 Climbing FlightAware
05:25AM 37.5270 -87.1600 245° Southwest 463 533 32,000 2,580 Climbing FlightAware
05:25AM 37.4850 -87.2690 244° Southwest 448 516 34,000 2,400 Climbing FlightAware
05:26AM 37.4500 -87.3590 244° Southwest 438 504 35,400 1,500 Climbing FlightAware
05:27AM 37.4150 -87.4510 244° Southwest 437 503 36,000 420 Climbing FlightAware
05:28AM 37.3760 -87.5530 244° Southwest 433 498 36,000  Level FlightAware
05:28AM 37.3420 -87.6410 244° Southwest 436 502 36,000  Level FlightAware
05:29AM 37.3020 -87.7430 244° Southwest 436 502 36,000  Level FlightAware
05:30AM 37.2690 -87.8290 244° Southwest 436 502 36,000  Level FlightAware
05:30AM 37.2290 -87.9300 244° Southwest 437 503 36,000  Level FlightAware
05:31AM 37.1890 -88.0320 244° Southwest 436 502 36,000  Level FlightAware
05:32AM 37.1550 -88.1190 244° Southwest 433 498 36,000  Level FlightAware
05:32AM 37.1240 -88.1990 244° Southwest 432 497 36,000  Level FlightAware
05:33AM 37.0720 -88.3280 243° Southwest 431 496 36,000  Level FlightAware
05:34AM 37.0450 -88.3960 244° Southwest 431 496 36,000  Level FlightAware
05:35AM 36.9930 -88.5230 243° Southwest 431 496 36,000  Level FlightAware
05:36AM 36.9490 -88.6380 244° Southwest 427 491 36,000  Level FlightAware
05:37AM 36.9040 -88.7520 244° Southwest 428 493 36,000  Level FlightAware
05:38AM 36.8450 -88.8960 243° Southwest 429 494 36,000 60 Level FlightAware
05:38AM 36.8120 -88.9820 244° Southwest 430 495 36,100 60 Climbing FlightAware
05:39AM 36.7630 -89.1000 243° Southwest 430 495 36,100  Level FlightAware
05:40AM 36.7330 -89.1750 243° Southwest 430 495 36,100  Level FlightAware
05:40AM 36.7050 -89.2430 243° Southwest 430 495 36,100  Level FlightAware
05:41AM 36.6680 -89.3330 243° Southwest 430 495 36,100  Level FlightAware
05:42AM 36.6400 -89.4010 243° Southwest 430 495 36,100 -120 Level FlightAware
05:43AM 36.5790 -89.5530 243° Southwest 420 483 36,000 -60 Descending FlightAware
05:44AM 36.5210 -89.6930 243° Southwest 424 488 36,000  Level FlightAware
05:44AM 36.4860 -89.7750 242° Southwest 424 488 36,000  Level FlightAware
05:45AM 36.4500 -89.8630 243° Southwest 427 491 36,100  Climbing FlightAware
05:46AM 36.4210 -89.9310 242° Southwest 427 491 36,100  Level FlightAware
05:47AM 36.3830 -90.0200 242° Southwest 427 491 36,100  Level FlightAware
05:47AM 36.3550 -90.0860 242° Southwest 427 491 36,100  Level FlightAware
05:48AM 36.3170 -90.1740 242° Southwest 427 491 36,100  Level FlightAware
05:49AM 36.2890 -90.2410 243° Southwest 427 491 36,100 -120 Level FlightAware
05:50AM 36.1950 -90.4730 243° Southwest 433 498 36,000  Descending FlightAware
05:50AM 36.1530 -90.5710 242° Southwest 432 497 36,100  Climbing FlightAware
05:51AM 36.1090 -90.6740 242° Southwest 429 494 36,000 -120 Descending FlightAware
05:52AM 36.0710 -90.7640 242° Southwest 430 495 36,000  Level FlightAware
05:53AM 36.0300 -90.8610 242° Southwest 428 493 36,000  Level FlightAware
05:53AM 35.9910 -90.9510 242° Southwest 429 494 36,000  Level FlightAware
05:54AM 35.9430 -91.0580 241° Southwest 429 494 36,000  Level FlightAware
05:55AM 35.9140 -91.1230 241° Southwest 429 494 36,000  Level FlightAware
05:55AM 35.8660 -91.2400 243° Southwest 432 497 36,000  Level FlightAware
05:56AM 35.8260 -91.3340 242° Southwest 433 498 36,000  Level FlightAware
05:57AM 35.7870 -91.4230 242° Southwest 434 499 36,000  Level FlightAware
05:58AM 35.7370 -91.5350 241° Southwest 435 501 36,000  Level FlightAware
05:58AM 35.6930 -91.6370 242° Southwest 436 502 36,000  Level FlightAware
05:59AM 35.6560 -91.7230 242° Southwest 437 503 36,000  Level FlightAware
06:00AM 35.6130 -91.8210 242° Southwest 438 504 36,000 60 Level FlightAware
06:01AM 35.5710 -91.9150 241° Southwest 438 504 36,100  Climbing FlightAware
06:02AM 35.5050 -92.0650 242° Southwest 437 503 36,000 -60 Descending FlightAware
06:02AM 35.4660 -92.1510 241° Southwest 436 502 36,000  Level FlightAware
06:03AM 35.4110 -92.2750 241° Southwest 433 498 36,000  Level FlightAware
06:04AM 35.3690 -92.3700 242° Southwest 430 495 36,000  Level FlightAware
06:05AM 35.3320 -92.4520 241° Southwest 427 491 36,000  Level FlightAware
06:05AM 35.2910 -92.5440 241° Southwest 424 488 36,000  Level FlightAware
06:06AM 35.2530 -92.6280 241° Southwest 423 487 36,000  Level FlightAware
06:07AM 35.2120 -92.7180 241° Southwest 426 490 36,000  Level FlightAware
06:08AM 35.1730 -92.8030 241° Southwest 431 496 36,000  Level FlightAware
06:08AM 35.1310 -92.8970 241° Southwest 434 499 36,000  Level FlightAware
06:09AM 35.1010 -92.9620 241° Southwest 434 499 36,000 60 Level FlightAware
06:10AM 35.0450 -93.0860 241° Southwest 442 509 36,100 60 Climbing FlightAware
06:10AM 35.0140 -93.1520 240° Southwest 442 509 36,100  Level FlightAware
06:11AM 34.9740 -93.2360 240° Southwest 442 509 36,100 -60 Level FlightAware
06:12AM 34.9120 -93.3730 241° Southwest 440 506 36,000 -120 Descending FlightAware
06:13AM 34.8790 -93.4430 240° Southwest 440 506 36,000  Level FlightAware
06:13AM 34.8470 -93.5100 240° Southwest 440 506 36,000  Level FlightAware
06:14AM 34.8050 -93.6000 240° Southwest 440 506 36,000  Level FlightAware
06:15AM 34.7720 -93.6690 240° Southwest 440 506 36,000  Level FlightAware
06:16AM 34.7310 -93.7550 240° Southwest 440 506 36,000  Level FlightAware
06:16AM 34.7000 -93.8210 240° Southwest 440 506 36,000  Level FlightAware
06:17AM 34.6580 -93.9080 240° Southwest 440 506 36,000  Level FlightAware
06:18AM 34.6260 -93.9750 240° Southwest 440 506 36,000  Level FlightAware
06:18AM 34.5860 -94.0610 241° Southwest 440 506 36,000  Level FlightAware
06:19AM 34.5550 -94.1260 240° Southwest 440 506 36,000  Level FlightAware
06:20AM 34.5120 -94.2160 240° Southwest 440 506 36,000  Level FlightAware
06:20AM 34.4820 -94.2790 240° Southwest 440 506 36,000  Level FlightAware
06:21AM 34.4400 -94.3660 240° Southwest 440 506 36,000  Level FlightAware
06:22AM 34.2790 -94.6280 233° Southwest 440 506 36,000  Level FlightAware
06:22AM 34.2330 -94.7110 236° Southwest 441 507 36,000  Level FlightAware
06:23AM 34.1700 -94.8250 236° Southwest 442 509 36,000  Level FlightAware
06:24AM 34.1150 -94.9220 236° Southwest 443 510 36,000 60 Level FlightAware
06:25AM 34.0750 -94.9950 237° Southwest 443 510 36,100  Climbing FlightAware
06:26AM 34.0640 -95.0130 234° Southwest 443 510 36,000 -420 Descending FlightAware
06:27AM 33.9530 -95.2110 236° Southwest 441 507 35,400 -1,920 Descending FlightAware
06:27AM 33.9070 -95.2920 236° Southwest 450 518 33,400 -3,300 Descending FlightAware
06:28AM 33.8540 -95.3850 236° Southwest 468 539 30,900 -3,360 Descending FlightAware
06:29AM 33.8060 -95.4710 236° Southwest 470 541 28,700 -3,120 Descending FlightAware
06:29AM 33.7540 -95.5620 236° Southwest 471 542 26,700 -2,820 Descending FlightAware
06:30AM 33.7030 -95.6530 236° Southwest 461 531 24,800 -2,700 Descending FlightAware
06:31AM 33.6510 -95.7450 236° Southwest 450 518 22,800 -2,760 Descending FlightAware
06:31AM 33.6020 -95.8290 235° Southwest 440 506 20,900 -2,760 Descending FlightAware
06:32AM 33.5560 -95.9090 235° Southwest 437 503 19,100 -2,700 Descending FlightAware
06:33AM 33.5070 -95.9930 235° Southwest 432 497 17,200 -2,760 Descending FlightAware
06:33AM 33.4610 -96.0740 236° Southwest 421 484 15,300 -2,700 Descending FlightAware
06:34AM 33.4170 -96.1490 235° Southwest 403 464 13,600 -2,100 Descending FlightAware
06:35AM 33.3580 -96.2510 235° Southwest 353 406 11,900 -1,320 Descending FlightAware
06:36AM 33.3220 -96.3140 236° Southwest 313 360 11,400 -720 Descending FlightAware
06:37AM 33.2880 -96.3740 236° Southwest 279 321 10,900 -480 Descending FlightAware
06:37AM 33.2620 -96.4220 237° Southwest 274 315 10,800 -240 Descending FlightAware
06:38AM 33.2400 -96.4870 248° West 277 319 10,600 -720 Descending FlightAware
06:38AM 33.2270 -96.5250 248° West 272 313 10,000 -660 Descending FlightAware
06:39AM 33.2130 -96.5650 247° West 280 322 10,000 -240 Level FlightAware
06:39AM 33.2010 -96.6000 248° West 281 323 9,800 -480 Descending FlightAware
06:40AM 33.1860 -96.6430 247° West 281 323 9,600 -1,020 Descending FlightAware
06:41AM 33.1580 -96.7220 247° West 272 313 8,400 -1,260 Descending FlightAware
06:41AM 33.1440 -96.7620 247° West 265 305 7,800 -1,320 Descending FlightAware
06:42AM 33.1310 -96.7970 246° West 261 300 7,200 -1,440 Descending FlightAware
06:42AM 33.1180 -96.8340 247° West 250 288 6,500 -1,380 Descending FlightAware
06:43AM 33.1070 -96.8720 251° West 240 276 5,900 -1,440 Descending FlightAware
06:43AM 33.0950 -96.9030 245° Southwest 240 276 5,200 -1,740 Descending FlightAware
06:44AM 33.0810 -96.9380 244° Southwest 240 276 4,300 -1,320 Descending FlightAware
06:44AM 33.0700 -96.9720 249° West 224 258 4,000 -900 Descending FlightAware
06:44AM 33.0590 -97.0020 246° West 206 237 3,500 -900 Descending FlightAware
06:45AM 33.0520 -97.0220 247° West 189 217 3,300 -360 Descending FlightAware
06:46AM 33.0490 -97.0300 246° West 186 214 3,100 -900 Descending FlightAware
06:46AM 33.0170 -97.0540 212° Southwest 148 170 2,400 -2,040 Descending FlightAware
06:46AM 33.0090 -97.0540 180° South 145 167 2,200 -840 Descending FlightAware
06:46AM 32.9920 -97.0540 180° South 147 169 1,900 -720 Descending FlightAware
06:47AM 32.9740 -97.0540 180° South 147 169 1,600 -600 Descending FlightAware
06:48AM 32.9436 -97.0544 180° South 144 166 1,200 -660 Descending Fort Worth Center
06:48AM 32.9167 -97.0500 172° South 153 176 800 -900 Descending Dallas / Fort Worth TRACON